COSMOS 1275 DEB

Satellite information

Favourite Embed

Satellite Type and Status

DEBRISIN ORBIT

Key statistics

Satellite COSMOS 1275 DEB at a glance.

Uptime

16217

Days in orbit

Revolutions

≈ 14.7

Per day

Orbit

LEO

Low Earth Orbit

Inclination

82.9

Latest

Satellite identification and parameters

Extended collection of information and parameters for COSMOS 1275 DEB.

Object identification

Identified? True

Debris? True

Object name: COSMOS 1275 DEB

International designator: 1981-053BC

Object number (NORAD): 12708

Object ID (CCSDS): 12708

Country: COMMONWEALTH OF INDEPENDENT STATES (CIS)

Current information (Y/N): Y

RCS size: SMALL

Orbital parameters

Period: 98.264 minutes

Inclination: 82.8616 deg

SMA: 7053.786 km

Apoapsis: 687.837 km

Periapsis: 663.465 km

RAAN: 245.342 deg

Eccentricy: 0.00172752

Argument of periapsis: 196.0381 deg

Mean anomaly: 164.028 deg

Mean motion: 14.65444379 rev/day

Mean motion (dot): 0.00018843 rev/day2

B* drag term: 0.0034651815 1/REarth

Two-line elements (TLE)

Creation date: Oct. 28, 2025, 2:18 a.m.

Reference frame: TEME

Reference center: EARTH

Epoch: Oct. 27, 2025, 8:53 p.m. UTC

TLE line 0: 0 COSMOS 1275 DEB

TLE line 1: 1 12708U 81053BC 25300.87015608 .00018843 00000-0 34652-2 0 9996

TLE line 2: 2 12708 82.8616 245.3420 0017275 196.0381 164.0280 14.65444379279771

Live tracking on map

Real-time ground track for satellite COSMOS 1275 DEB.

In-orbit conjunctions

A list of the most updated potential collisions computed for object COSMOS 1275 DEB.

Target Orbit TCA Probability of collision Miss distance Type
NOAA 16 DEB SSO 2024-09-26 11:12:56 0.001206895 265.0 (m) DEBRIS
NOAA 16 DEB SSO 2024-09-26 03:42:53 0.0004936551 597.0 (m) DEBRIS
PEGASUS R/B LEO 2024-06-19 07:12:32 0.0001094725 561.0 (m) ROCKET BODY

Associated space launch

Navigation satellite providing location information for the Tsiklon-B navigation system

COSMOS 1275 DEB was lifted into orbit during the mission ‘Kosmos-3M | Parus 27’, on board a Kosmos-3M space rocket.

The launch took place on June 4, 1981, 3:41 p.m. from 132/2.

For more information about the launch, click the button.

Launch to space Kosmos-3M | Parus 27
Kosmos-3M | Parus 27

Agency: N/A

Status: Launch Successful

Launch date: June 4, 1981, 3:41 p.m. UTC

Rocket: Kosmos-3M

Launch pad: 132/2

Location: Plesetsk Cosmodrome, Russian Federation

...

Latest news about this satellite

There are no fresh news available about this satellite. Check back as we update our databases every day.


Newsletter sign-up

Weekly statistics, charts and insights to help you stay on top of the space industry.